CAPE
3 145 0 0 0 0 0 0 0 0 0 0 0 0 0 0 0 0 0 0 0 0 0 0 0 0 0 0 0 0 0 0 0 11 273 599 574 801 830 1289 1198 823 438
0 182 15 0 0 0 0 0 0 0 0 0 0 0 0 0 0 0 0 0 0 0 0 0 0 0 0 0 0 0 0 0 0 0 1 165 527 546 886 854 1003 817 461
0 192 34 7 0 0 0 0 0 0 0 0 0 0 0 0 0 0 0 0 0 0 0 0 0 0 0 0 0 0 0 0 0 0 0 11 718 644 518 752 931 692 495
3 235 45 39 2 0 0 0 0 0 0 0 0 0 0 0 0 0 0 0 0 0 0 0 0 1 3 0 0 0 0 0 0 0 0 0 6 946 812 800 627 636 559
0 254 124 86 46 10 0 0 0 0 0 0 0 0 0 0 0 0 1 6 0 10 6 0 3 5 4 14 7 0 0 0 0 0 0 0 0 351 964 626 640 616 616
3 85 301 203 66 51 5 0 0 0 0 0 0 0 0 8 5 0 11 33 82 128 118 95 72 17 11 22 11 16 14 0 0 0 0 0 0 14 594 830 692 764 539
3 7 348 286 95 93 58 7 0 0 0 0 4 27 0 6 24 101 193 358 546 438 354 249 231 196 138 122 53 24 90 92 1 0 0 0 0 14 398 571 802 616 589
9 13 69 447 264 142 150 117 52 22 24 44 65 58 72 152 222 416 586 743 545 409 205 109 108 212 164 74 117 72 62 97 56 13 0 0 10 0 12 290 762 675 563
32 45 50 1104 742 370 366 431 302 120 76 144 143 106 227 357 548 806 969 650 479 181 31 34 31 57 234 158 85 122 112 94 1 48 30 11 8 0 0 102 890 787 629
103 83 95 346 1188 901 487 963 697 300 211 244 260 289 411 589 668 750 529 372 53 25 52 0 0 11 54 136 176 145 121 152 2 18 25 49 58 0 0 59 867 761 681
52 109 151 145 407 764 455 713 1128 875 595 550 540 670 759 431 287 716 634 336 158 78 12 11 2 0 0 12 42 36 18 0 6 22 29 166 99 3 0 0 615 806 687
89 71 107 218 259 558 433 577 1272 728 624 570 565 724 1064 889 518 370 311 141 65 27 7 0 0 0 0 0 7 14 4 0 3 31 41 92 30 9 0 0 302 724 748
36 78 108 345 475 587 589 507 1175 1015 715 842 973 1048 986 700 263 311 419 493 317 361 230 114 51 14 3 6 21 48 64 31 16 39 48 62 40 10 0 29 117 634 760
3 106 49 185 687 896 762 534 716 973 954 883 845 1195 1040 623 387 467 416 320 398 199 189 65 14 24 18 16 29 30 40 31 35 44 251 57 16 0 0 39 80 421 624
0 5 61 174 873 1166 1235 656 769 878 785 766 656 610 703 382 427 512 516 523 391 275 145 52 47 21 17 22 27 30 34 123 7 87 63 22 7 0 0 66 90 341 786
0 0 69 173 961 1237 1421 1389 1152 1221 697 566 387 304 430 524 554 530 597 542 411 292 290 160 1 8 23 33 36 36 61 160 73 99 126 41 8 0 0 28 93 263 851
0 3 130 252 1070 1420 1601 1533 1273 952 614 348 296 190 305 754 731 749 532 553 424 257 410 351 234 49 24 45 24 48 55 115 114 30 127 96 24 0 0 0 35 160 1009
0 1 94 194 754 1410 1559 1545 1222 679 500 179 162 231 666 818 829 679 662 585 502 547 441 264 169 96 19 41 42 51 94 64 98 146 149 208 25 25 61 0 0 194 945
0 46 216 393 608 1225 1596 1405 1066 583 328 150 218 349 503 778 708 679 683 727 601 527 475 242 116 211 55 21 58 141 156 275 191 126 165 14 3 41 286 72 0 257 706
6 56 387 490 542 1234 1401 1147 519 364 305 183 313 389 494 672 604 769 796 609 596 519 57 26 128 238 150 164 109 112 220 163 157 168 25 14 59 40 97 477 769 587 718
41 289 394 377 748 1211 957 507 289 251 259 204 248 443 613 645 605 773 855 673 539 145 165 125 59 39 156 228 338 250 362 329 247 62 68 32 319 384 140 220 1039 890 974
155 259 305 405 744 843 509 319 197 200 159 200 308 463 694 635 609 793 850 687 418 254 147 80 151 146 137 148 127 248 104 298 283 96 100 487 691 528 299 702 977 1000 621
216 306 372 493 696 476 338 263 269 291 445 379 173 359 607 635 682 653 733 594 396 209 87 137 204 229 229 288 299 312 196 125 128 188 350 519 685 523 285 1012 821 243 145
293 354 411 524 509 287 281 334 304 164 123 217 349 170 646 512 342 464 481 385 268 264 226 369 340 318 292 306 371 450 385 353 169 228 498 599 708 631 724 1240 920 695 177
289 280 438 470 363 355 326 190 298 129 37 115 84 389 638 636 562 408 323 379 347 364 470 503 458 325 315 433 474 425 419 558 320 208 382 577 514 778 1074 1238 1079 804 383
199 325 407 423 385 297 201 334 454 424 249 181 364 409 438 760 642 503 213 322 337 587 485 349 167 313 572 674 532 514 432 489 289 451 481 533 557 659 834 966 890 698 421
CIN
-63 -382 -0 -0 -0 -0 -0 -0 -0 -0 -0 -0 -0 -0 -0 -0 -0 -0 -0 -0 -0 -0 -0 -0 -0 -0 -0 -0 -0 -0 -0 -0 -0 -96 -66 -31 -21 -16 -18 -0 -4 -3 -36
-0 -357 -614 -0 -0 -0 -0 -0 -0 -0 -0 -0 -0 -0 -0 -0 -0 -0 -0 -0 -0 -0 -0 -0 -0 -0 -0 -0 -0 -0 -0 -0 -0 -0 -11 -97 -31 -19 -14 -17 -10 -1 -30
-0 -305 -560 -583 -0 -0 -0 -0 -0 -0 -0 -0 -0 -0 -0 -0 -0 -0 -0 -0 -0 -0 -0 -0 -0 -0 -0 -0 -0 -0 -0 -0 -0 -0 -0 -161 -0 -19 -17 -16 -14 -5 -23
-73 -262 -417 -558 -111 -0 -0 -0 -0 -0 -0 -0 -0 -0 -0 -0 -0 -0 -0 -0 -0 -0 -0 -0 -0 -0 -0 -0 -0 -0 -0 -0 -0 -0 -0 -0 -1 -14 -25 -16 -18 -5 -13
-23 -207 -313 -506 -514 -392 -0 -0 -0 -0 -0 -0 -0 -0 -0 -0 -0 -0 -45 -141 -0 -77 -70 -0 -0 -0 -0 -1 -2 -0 -0 -0 -0 -0 -0 -0 -0 -29 -24 -25 -16 -12 -8
-148 -167 -248 -395 -484 -471 -438 -0 -0 -0 -0 -0 -0 -0 -0 -275 -267 -0 -198 -131 -29 -19 -34 -62 -83 -111 -67 -152 -1 -176 -195 -0 -0 -0 -0 -0 -0 -62 -3 -5 -12 -1 -14
-44 -110 -184 -349 -460 -455 -421 -323 -44 -0 -0 -0 -72 -275 -0 -56 -159 -132 -47 -0 -0 -0 -0 -11 -16 -32 -59 -78 -130 -163 -104 -91 -47 -0 -0 -0 -0 -41 -16 -5 -5 -9 -9
-72 -127 -136 -295 -363 -423 -396 -380 -375 -386 -363 -316 -267 -250 -218 -163 -117 -50 -9 -0 -0 -0 -22 -73 -75 -22 -45 -120 -94 -125 -113 -100 -123 -1 -0 -0 -3 -0 -87 -36 -4 -6 -9
-67 -92 -130 -211 -315 -373 -346 -315 -310 -341 -316 -283 -268 -261 -176 -118 -56 -4 -0 -0 -3 -48 -148 -181 -182 -113 -19 -54 -93 -95 -92 -78 -1 -159 -2 -4 -6 -0 -0 -51 -2 -1 -5
-58 -60 -135 -169 -186 -251 -290 -235 -260 -298 -282 -246 -237 -210 -141 -85 -49 -25 -50 -54 -145 -185 -136 -0 -0 -212 -91 -47 -21 -41 -76 -74 -0 -56 -1 -9 -282 -0 -0 -80 -0 -0 -2
-17 -47 -84 -127 -155 -209 -242 -234 -177 -193 -209 -192 -178 -121 -68 -126 -125 -13 -33 -82 -109 -132 -237 -253 -85 -0 -0 -135 -90 -114 -171 -0 -1 -1 -1 -108 -232 -36 -0 -0 -0 -0 -1
-5 -18 -61 -110 -145 -176 -186 -181 -158 -191 -199 -187 -153 -77 -29 -52 -68 -68 -51 -121 -170 -196 -208 -0 -0 -0 -0 -0 -1 -16 -2 -0 -0 -1 -1 -129 -27 -44 -0 -0 -14 -0 -0
-8 -5 -39 -88 -160 -163 -172 -156 -129 -141 -167 -129 -85 -44 -27 -52 -105 -77 -48 -27 -67 -25 -34 -67 -78 -132 -2 -0 -1 -18 -78 -2 -1 -2 -2 -35 -37 -50 -0 -138 -35 -0 -0
-29 -8 -25 -68 -191 -182 -133 -160 -157 -122 -109 -93 -79 -43 -45 -87 -136 -100 -62 -26 -7 -10 -2 -28 -123 -127 -3 -2 -2 -7 -21 -13 -4 -2 -91 -154 -34 -0 -0 -81 -34 -0 -3
-0 -20 -31 -47 -188 -230 -185 -148 -189 -147 -129 -114 -122 -152 -146 -146 -99 -50 -26 -20 -5 -1 -4 -38 -39 -2 -7 -10 -8 -2 -2 -76 -54 -116 -47 -86 -41 -0 -0 -37 -27 -5 -0
-0 -0 -60 -51 -156 -255 -231 -140 -166 -105 -116 -168 -168 -211 -212 -145 -87 -50 -18 -26 -11 -1 -1 -4 -8 -5 -4 -2 -5 -7 -43 -81 -99 -117 -84 -93 -33 -0 -0 -50 -39 -15 -0
-0 -72 -83 -83 -146 -245 -217 -162 -145 -166 -187 -226 -221 -240 -219 -85 -57 -35 -16 -7 -9 -14 -3 -1 -0 -28 -2 -1 -4 -1 -6 -81 -81 -10 -61 -87 -9 -0 -0 -0 -73 -55 -0
-0 -18 -107 -109 -163 -220 -191 -158 -147 -175 -256 -249 -253 -223 -137 -67 -44 -26 -10 -5 -1 -1 -0 -0 -1 -1 -8 -2 -6 -1 -5 -4 -41 -41 -49 -25 -2 -3 -68 -0 -0 -33 -5
-0 -157 -120 -183 -229 -232 -171 -151 -158 -219 -270 -263 -228 -183 -104 -54 -31 -26 -10 -0 -0 -0 -0 -0 -1 -0 -4 -13 -4 -1 -3 -0 -1 -10 -7 -1 -1 -5 -8 -102 -0 -28 -17
-155 -175 -185 -288 -322 -230 -170 -188 -272 -288 -252 -242 -194 -155 -82 -34 -27 -1 -0 -0 -0 -0 -44 -27 -2 -1 -1 -7 -1 -0 -2 -3 -1 -2 -1 -1 -1 -1 -90 -9 -9 -16 -24
-282 -292 -373 -416 -337 -232 -241 -292 -304 -278 -234 -217 -182 -109 -54 -15 -5 -1 -0 -0 -0 -26 -3 -3 -8 -9 -1 -3 -0 -0 -0 -0 -2 -1 -2 -2 -1 -1 -50 -14 -0 -0 -1
-354 -426 -462 -434 -354 -280 -303 -284 -270 -236 -211 -176 -98 -58 -24 -8 -1 -0 -0 -0 -0 -0 -1 -0 -0 -0 -0 -4 -1 -0 -0 -0 -6 -1 -2 -5 -1 -1 -1 -1 -0 -0 -46
-398 -469 -473 -421 -340 -326 -293 -255 -230 -201 -103 -113 -117 -37 -32 -4 -0 -1 -0 -0 -0 -0 -2 -2 -1 -0 -0 -1 -1 -1 -1 -1 -2 -2 -2 -1 -2 -2 -1 -2 -2 -60 -124
-393 -446 -427 -373 -345 -326 -269 -212 -198 -176 -146 -79 -34 -3 -6 -1 -1 -1 -0 -0 -0 -1 -1 -1 -2 -0 -0 -0 -2 -13 -8 -5 -3 -1 -2 -4 -7 -7 -1 -0 -0 -11 -101
-401 -433 -370 -350 -334 -263 -229 -226 -171 -159 -165 -106 -49 -4 -6 -1 -1 -1 -1 -0 -2 -3 -0 -0 -0 -1 -7 -3 -7 -8 -7 -6 -5 -2 -3 -1 -8 -7 -0 -0 -1 -3 -33
-417 -374 -344 -308 -264 -247 -231 -160 -104 -96 -90 -48 -11 -1 -8 -0 -0 -0 -1 -4 -1 -0 -0 -1 -9 -1 -1 -1 -3 -4 -10 -8 -3 -4 -4 -5 -2 -0 -0 -0 -0 -0 -9
Wind_Speed
13 12 11 10 11 11 12 12 13 13 14 15 15 15 15 15 14 14 14 15 16 17 18 18 19 19 20 20 21 22 22 23 23 23 23 23 21 17 12 8 8 9 6
11 11 10 9 10 10 11 11 12 13 13 14 15 15 16 16 15 16 16 16 16 18 19 19 20 21 21 21 22 22 23 24 24 25 26 26 24 20 15 13 11 11 5
11 10 9 9 9 9 10 10 10 11 12 12 13 14 15 15 15 15 16 16 17 18 20 21 21 21 22 22 22 23 23 24 25 26 27 27 25 18 20 15 14 14 8
10 10 9 8 7 8 8 9 9 9 10 11 12 13 14 15 16 15 15 16 17 18 20 22 22 22 21 22 22 23 23 25 26 27 28 27 28 13 17 21 18 15 9
9 9 8 8 7 6 7 8 8 8 8 9 10 12 13 15 15 16 15 14 13 17 21 23 23 22 22 21 22 23 24 25 26 27 28 28 28 21 18 19 19 16 10
8 8 7 8 6 6 7 7 7 6 7 7 8 11 13 14 16 17 17 16 15 13 17 22 24 25 24 24 24 24 25 26 27 27 27 28 25 26 23 24 21 18 13
7 6 6 6 5 5 5 6 6 6 5 5 8 11 13 15 17 19 19 19 18 19 22 21 24 28 28 26 25 25 26 26 27 29 27 27 26 20 22 25 24 21 15
9 5 4 3 4 3 4 4 3 4 4 5 8 11 13 15 17 18 18 18 20 21 23 25 28 29 29 27 25 25 26 27 29 28 28 28 22 20 22 26 27 22 18
9 6 3 1 3 4 3 2 2 1 2 4 7 10 11 14 18 19 20 19 19 20 21 24 27 29 30 27 26 26 25 26 29 32 31 24 22 20 23 25 27 23 20
9 5 2 3 3 5 5 3 3 2 3 5 7 9 12 15 17 15 16 15 13 16 20 23 24 26 27 29 28 27 26 25 27 30 31 30 16 17 21 23 27 23 19
13 6 4 3 4 4 6 5 4 4 5 6 7 10 12 16 17 13 11 15 14 16 19 21 21 21 23 24 27 27 28 27 26 23 25 23 17 18 22 25 26 25 19
13 10 6 5 6 5 5 5 4 5 5 4 7 9 10 13 17 19 22 17 17 17 17 17 15 16 19 20 21 16 23 27 25 26 22 18 18 21 23 25 25 25 21
17 14 9 7 8 7 6 5 3 4 4 3 4 7 10 15 18 16 15 14 14 15 16 13 12 12 12 16 20 22 24 24 25 26 22 18 19 22 22 25 25 25 22
20 15 13 9 9 9 7 6 5 4 3 3 4 7 10 13 14 14 16 18 19 20 19 20 20 23 22 24 21 17 23 28 27 26 15 15 20 24 23 25 26 26 24
22 23 18 10 10 9 10 8 7 6 5 4 6 8 9 11 13 15 17 18 21 18 20 21 23 18 17 22 28 26 25 23 29 28 20 17 20 24 24 26 26 27 25
27 23 17 10 10 10 9 9 8 6 7 11 10 9 9 11 14 15 18 16 15 18 16 18 21 24 22 23 18 26 24 24 24 28 20 20 24 23 24 26 26 27 26
24 22 16 10 10 10 10 10 9 9 10 3 7 10 10 12 14 16 17 18 15 17 17 18 16 15 19 19 19 18 20 17 23 27 23 21 18 20 21 24 26 26 26
23 17 12 9 9 9 9 9 9 9 8 7 8 9 11 12 15 17 17 17 17 18 18 18 15 16 16 22 22 16 17 19 21 21 22 26 24 21 20 22 22 25 25
21 15 10 8 8 8 9 8 8 6 7 9 9 11 12 13 15 16 16 17 17 17 15 16 17 14 19 19 21 19 17 16 17 18 20 20 24 25 20 17 21 24 23
27 16 8 4 6 6 4 5 5 7 8 9 11 13 13 15 18 15 15 16 16 15 17 14 15 16 19 18 20 18 18 18 14 20 17 20 21 21 24 14 17 22 20
19 10 3 3 2 2 3 4 5 7 8 10 12 13 15 17 17 15 15 15 11 15 14 13 15 17 16 19 19 19 19 20 21 18 16 18 17 21 22 21 21 19 18
14 4 1 1 1 1 3 4 5 7 8 10 12 13 15 18 17 14 13 14 13 14 11 6 5 10 12 11 13 15 15 17 20 17 16 15 17 18 18 18 17 14 13
8 2 2 1 1 0 2 4 6 8 12 12 13 14 13 15 14 14 13 12 10 6 5 4 4 6 10 11 5 12 12 15 7 13 19 17 17 19 14 13 12 12 14
4 3 2 4 4 4 3 4 5 8 9 12 15 17 14 15 13 14 10 6 6 5 7 7 6 4 7 6 2 2 23 19 7 13 18 18 16 18 14 13 12 13 13
3 3 5 6 6 5 4 6 6 9 11 14 14 14 14 13 13 8 7 7 7 8 7 12 16 16 14 12 12 5 25 24 12 13 13 15 15 14 14 14 13 13 10
4 6 7 7 6 6 6 7 9 11 14 15 13 16 15 12 9 8 10 10 11 13 17 19 19 19 18 20 23 24 25 24 23 17 19 10 9 13 13 13 13 15 13
Wind_Direction
35 62 84 82 73 64 63 64 63 60 55 48 42 34 28 21 14 5 357 346 332 327 326 324 319 315 311 305 301 298 295 291 290 287 283 282 289 295 306 320 326 322 12
49 67 88 85 74 68 67 66 67 62 55 50 43 34 26 16 6 357 349 340 333 325 319 318 317 313 309 307 301 297 294 291 288 285 281 277 279 286 292 297 302 307 334
59 72 96 93 81 72 73 72 69 66 60 53 44 37 31 25 18 5 351 343 334 326 317 313 312 311 307 305 302 298 293 291 288 284 281 277 278 287 283 290 292 291 301
60 73 98 102 86 76 76 80 77 68 61 55 45 37 29 20 12 7 358 348 335 327 320 312 310 308 306 303 301 297 294 290 289 285 280 278 274 287 284 278 283 288 291
55 72 94 111 99 88 87 89 83 77 67 54 46 36 26 15 9 2 358 355 348 332 321 313 308 306 304 302 301 298 295 291 289 285 281 276 275 284 282 280 279 282 284
47 66 86 120 117 108 109 102 98 86 72 63 46 26 18 10 1 355 349 345 341 338 329 316 308 302 300 300 298 296 294 291 288 285 282 277 280 278 279 275 277 278 276
31 49 76 135 141 130 124 115 107 94 83 62 30 14 7 2 355 349 342 337 333 328 321 318 312 300 295 295 297 295 293 289 286 282 282 279 279 281 280 276 275 276 276
5 28 35 135 177 167 153 138 115 95 72 37 13 3 360 358 354 350 344 339 330 326 321 315 305 300 298 295 295 296 292 288 282 282 280 279 282 283 283 277 273 274 273
358 3 356 48 227 213 205 184 166 99 25 4 359 356 355 352 348 346 344 340 334 329 324 319 310 300 294 293 292 292 292 288 282 274 276 281 279 281 282 278 272 273 271
352 348 320 318 274 221 213 235 225 240 322 339 345 348 348 346 344 343 345 341 339 334 327 321 317 309 300 290 289 287 290 290 285 278 275 277 285 283 284 280 273 274 271
338 324 301 253 256 234 223 233 248 268 303 324 335 339 343 343 343 340 338 344 345 336 328 322 319 314 308 299 291 287 283 285 283 283 280 283 281 280 279 277 275 274 271
324 315 279 253 256 247 243 228 251 263 282 302 323 335 342 344 345 345 341 343 337 334 327 323 323 318 309 305 300 292 287 281 281 281 280 283 284 283 281 274 274 274 270
323 321 287 260 266 251 242 235 277 279 273 277 304 331 338 343 343 343 343 340 338 341 336 332 328 324 321 307 300 297 288 285 278 277 279 277 280 281 280 272 271 272 270
319 307 301 251 254 258 248 231 259 277 261 295 319 332 338 341 344 344 342 339 337 333 329 325 321 311 311 303 299 298 291 278 277 279 280 282 282 279 276 270 269 269 269
314 308 300 254 242 250 235 242 245 259 276 302 321 334 337 337 342 342 340 339 332 334 329 321 316 317 316 305 289 288 285 283 270 281 283 283 280 279 272 269 267 266 266
315 306 297 260 236 235 238 251 256 269 294 309 313 323 331 334 338 337 336 335 333 331 333 323 315 311 311 303 302 288 288 281 274 276 283 278 279 277 268 267 264 263 263
311 305 293 270 234 235 255 247 259 276 284 301 301 318 328 332 334 332 333 332 330 329 327 325 321 316 314 310 303 302 295 285 276 272 281 273 276 278 269 266 263 262 260
311 300 293 267 228 243 258 256 267 278 287 303 323 325 327 328 330 331 329 328 328 327 324 324 321 313 311 302 302 305 298 287 277 277 275 268 273 275 270 266 263 259 258
310 304 287 260 236 238 263 263 268 271 300 312 324 326 327 328 329 328 326 327 326 325 325 324 313 312 306 301 298 299 294 287 283 277 273 276 270 271 271 267 261 258 256
300 309 294 248 253 246 249 271 264 293 299 315 323 325 329 330 331 329 327 327 328 327 325 319 311 307 301 302 296 297 287 281 281 276 280 275 272 270 265 270 269 259 253
308 311 287 241 228 214 248 249 283 295 309 318 324 328 331 331 332 332 331 331 333 324 326 323 313 304 302 296 297 293 285 278 277 280 278 277 278 270 267 269 265 260 250
311 324 355 198 210 229 295 294 309 316 325 328 332 333 335 332 334 336 336 334 332 333 337 348 355 324 314 314 304 291 290 284 275 275 277 278 273 270 268 265 262 257 248
323 14 13 53 73 78 343 343 346 342 337 338 335 334 339 341 343 344 343 342 349 1 14 19 1 336 323 316 300 296 300 290 281 276 268 271 265 262 266 263 256 256 250
354 5 38 81 86 53 47 13 356 347 348 348 344 347 356 352 353 352 5 26 37 58 13 8 12 28 341 338 1 296 262 283 293 280 265 261 263 257 262 259 254 253 250
13 54 83 84 74 54 47 19 8 355 356 349 355 356 358 4 3 33 53 73 99 57 73 151 164 157 139 125 128 225 243 245 285 276 263 258 260 260 262 256 252 248 244
87 92 85 81 55 52 43 27 15 5 355 358 4 1 4 12 30 78 78 96 117 146 174 172 159 153 146 172 193 201 216 222 234 256 249 257 260 261 260 253 248 242 236